Year,Month,Day,Hour,Minute,Value (Times are PST for temperature in C)
2007,07,11,00,00,22.60
2007,07,11,00,01,22.60
2007,07,11,00,02,22.50
2007,07,11,00,03,22.40
2007,07,11,00,04,22.40
2007,07,11,00,05,22.30
2007,07,11,00,06,22.30
2007,07,11,00,07,22.20
2007,07,11,00,08,22.20
2007,07,11,00,09,22.20
2007,07,11,00,10,22.10
2007,07,11,00,11,22.10
2007,07,11,00,12,22.00
2007,07,11,00,13,22.00
2007,07,11,00,14,22.00
2007,07,11,00,15,21.90
2007,07,11,00,16,21.80
2007,07,11,00,17,21.80
2007,07,11,00,18,21.80
2007,07,11,00,19,21.70
2007,07,11,00,20,21.70
2007,07,11,00,21,21.60
2007,07,11,00,22,21.60
2007,07,11,00,23,21.60
2007,07,11,00,24,21.60
2007,07,11,00,25,21.60
2007,07,11,00,26,21.60
2007,07,11,00,27,21.60
2007,07,11,00,28,21.50
2007,07,11,00,29,21.40
2007,07,11,00,30,21.40
2007,07,11,00,31,21.40
2007,07,11,00,32,21.40
2007,07,11,00,33,21.40
2007,07,11,00,34,21.40
2007,07,11,00,35,21.40
2007,07,11,00,36,21.30
2007,07,11,00,37,21.30
2007,07,11,00,38,21.30
2007,07,11,00,39,21.20
2007,07,11,00,40,21.20
2007,07,11,00,41,21.20
2007,07,11,00,42,21.10
2007,07,11,00,43,21.10
2007,07,11,00,44,21.00
2007,07,11,00,45,21.00
2007,07,11,00,46,21.00
2007,07,11,00,47,21.00
2007,07,11,00,48,21.00
2007,07,11,00,49,21.00
2007,07,11,00,50,20.90
2007,07,11,00,51,20.90
2007,07,11,00,52,20.90
2007,07,11,00,53,20.90
2007,07,11,00,54,20.90
2007,07,11,00,55,20.80
2007,07,11,00,56,20.80
2007,07,11,00,57,20.80
2007,07,11,00,58,20.80
2007,07,11,00,59,20.80
2007,07,11,01,00,20.80
2007,07,11,01,01,20.70
2007,07,11,01,02,20.70
2007,07,11,01,03,20.70
2007,07,11,01,04,20.60
2007,07,11,01,05,20.60
2007,07,11,01,06,20.60
2007,07,11,01,07,20.50
2007,07,11,01,08,20.50
2007,07,11,01,09,20.50
2007,07,11,01,10,20.50
2007,07,11,01,11,20.40
2007,07,11,01,12,20.40
2007,07,11,01,13,20.40
2007,07,11,01,14,20.40
2007,07,11,01,15,20.40
2007,07,11,01,16,20.30
2007,07,11,01,17,20.30
2007,07,11,01,18,20.30
2007,07,11,01,19,20.20
2007,07,11,01,20,20.20
2007,07,11,01,21,20.20
2007,07,11,01,22,20.20
2007,07,11,01,23,20.20
2007,07,11,01,24,20.20
2007,07,11,01,25,20.10
2007,07,11,01,26,20.10
2007,07,11,01,27,20.10
2007,07,11,01,28,20.10
2007,07,11,01,29,20.10
2007,07,11,01,30,20.10
2007,07,11,01,31,20.10
2007,07,11,01,32,20.20
2007,07,11,01,33,20.20
2007,07,11,01,34,20.20
2007,07,11,01,35,20.20
2007,07,11,01,36,20.20
2007,07,11,01,37,20.10
2007,07,11,01,38,20.10
2007,07,11,01,39,20.10
2007,07,11,01,40,20.10
2007,07,11,01,41,19.90
2007,07,11,01,42,19.90
2007,07,11,01,43,19.90
2007,07,11,01,44,19.90
2007,07,11,01,45,19.90
2007,07,11,01,46,19.90
2007,07,11,01,47,19.80
2007,07,11,01,48,19.80
2007,07,11,01,49,19.70
2007,07,11,01,50,19.70
2007,07,11,01,51,19.70
2007,07,11,01,52,19.60
2007,07,11,01,53,19.60
2007,07,11,01,54,19.60
2007,07,11,01,55,19.60
2007,07,11,01,56,19.60
2007,07,11,01,57,19.50
2007,07,11,01,58,19.50
2007,07,11,01,59,19.50
2007,07,11,02,00,19.40
2007,07,11,02,01,19.40
2007,07,11,02,02,19.40
2007,07,11,02,03,19.40
2007,07,11,02,04,19.40
2007,07,11,02,05,19.40
2007,07,11,02,06,19.40
2007,07,11,02,07,19.40
2007,07,11,02,08,19.40
2007,07,11,02,09,19.40
2007,07,11,02,10,19.40
2007,07,11,02,11,19.40
2007,07,11,02,12,19.40
2007,07,11,02,13,19.40
2007,07,11,02,14,19.40
2007,07,11,02,15,19.40
2007,07,11,02,16,19.30
2007,07,11,02,17,19.30
2007,07,11,02,18,19.30
2007,07,11,02,19,19.30
2007,07,11,02,20,19.30
2007,07,11,02,21,19.30
2007,07,11,02,22,19.20
2007,07,11,02,23,19.20
2007,07,11,02,24,19.20
2007,07,11,02,25,19.20
2007,07,11,02,26,19.20
2007,07,11,02,27,19.20
2007,07,11,02,28,19.20
2007,07,11,02,29,19.20
2007,07,11,02,30,19.20
2007,07,11,02,31,19.20
2007,07,11,02,32,19.10
2007,07,11,02,33,19.10
2007,07,11,02,34,19.10
2007,07,11,02,35,19.10
2007,07,11,02,36,19.10
2007,07,11,02,37,19.10
2007,07,11,02,38,19.10
2007,07,11,02,39,19.10
2007,07,11,02,40,19.00
2007,07,11,02,41,18.90
2007,07,11,02,42,18.90
2007,07,11,02,43,18.90
2007,07,11,02,44,18.90
2007,07,11,02,45,18.90
2007,07,11,02,46,18.90
2007,07,11,02,47,18.80
2007,07,11,02,48,18.80
2007,07,11,02,49,18.80
2007,07,11,02,50,18.70
2007,07,11,02,51,18.70
2007,07,11,02,52,18.70
2007,07,11,02,53,18.70
2007,07,11,02,54,18.60
2007,07,11,02,55,18.60
2007,07,11,02,56,18.60
2007,07,11,02,57,18.50
2007,07,11,02,58,18.50
2007,07,11,02,59,18.50
2007,07,11,03,00,18.40
2007,07,11,03,01,18.40
2007,07,11,03,02,18.40
2007,07,11,03,03,18.40
2007,07,11,03,04,18.40
2007,07,11,03,05,18.30
2007,07,11,03,06,18.40
2007,07,11,03,07,18.40
2007,07,11,03,08,18.30
2007,07,11,03,09,18.30
2007,07,11,03,10,18.30
2007,07,11,03,11,18.30
2007,07,11,03,12,18.30
2007,07,11,03,13,18.30
2007,07,11,03,14,18.20
2007,07,11,03,15,18.20
2007,07,11,03,16,18.20
2007,07,11,03,17,18.20
2007,07,11,03,18,18.20
2007,07,11,03,19,18.20
2007,07,11,03,20,18.20
2007,07,11,03,21,18.10
2007,07,11,03,22,18.10
2007,07,11,03,23,18.10
2007,07,11,03,24,18.10
2007,07,11,03,25,18.10
2007,07,11,03,26,18.10
2007,07,11,03,27,18.10
2007,07,11,03,28,18.10
2007,07,11,03,29,18.10
2007,07,11,03,30,18.10
2007,07,11,03,31,18.10
2007,07,11,03,32,18.10
2007,07,11,03,33,17.90
2007,07,11,03,34,17.90
2007,07,11,03,35,17.90
2007,07,11,03,36,17.90
2007,07,11,03,37,17.90
2007,07,11,03,38,17.90
2007,07,11,03,39,17.90
2007,07,11,03,40,17.90
2007,07,11,03,41,17.90
2007,07,11,03,42,17.90
2007,07,11,03,43,17.80
2007,07,11,03,44,17.80
2007,07,11,03,45,17.80
2007,07,11,03,46,17.80
2007,07,11,03,47,17.70
2007,07,11,03,48,17.70
2007,07,11,03,49,17.70
2007,07,11,03,50,17.70
2007,07,11,03,51,17.60
2007,07,11,03,52,17.60
2007,07,11,03,53,17.60
2007,07,11,03,54,17.60
2007,07,11,03,55,17.60
2007,07,11,03,56,17.50
2007,07,11,03,57,17.50
2007,07,11,03,58,17.50
2007,07,11,03,59,17.50
2007,07,11,04,00,17.40
2007,07,11,04,01,17.40
2007,07,11,04,02,17.40
2007,07,11,04,03,17.40
2007,07,11,04,04,17.30
2007,07,11,04,05,17.30
2007,07,11,04,06,17.30
2007,07,11,04,07,17.30
2007,07,11,04,08,17.30
2007,07,11,04,09,17.30
2007,07,11,04,10,17.30
2007,07,11,04,11,17.30
2007,07,11,04,12,17.30
2007,07,11,04,13,17.30
2007,07,11,04,14,17.30
2007,07,11,04,15,17.30
2007,07,11,04,16,17.30
2007,07,11,04,17,17.30
2007,07,11,04,18,17.30
2007,07,11,04,19,17.20
2007,07,11,04,20,17.20
2007,07,11,04,21,17.20
2007,07,11,04,22,17.20
2007,07,11,04,23,17.20
2007,07,11,04,24,17.20
2007,07,11,04,25,17.20
2007,07,11,04,26,17.20
2007,07,11,04,27,17.20
2007,07,11,04,28,17.20
2007,07,11,04,29,17.20
2007,07,11,04,30,17.20
2007,07,11,04,31,17.20
2007,07,11,04,32,17.10
2007,07,11,04,33,17.10
2007,07,11,04,34,17.10
2007,07,11,04,35,17.10
2007,07,11,04,36,17.00
2007,07,11,04,37,17.00
2007,07,11,04,38,17.00
2007,07,11,04,39,17.00
2007,07,11,04,40,17.00
2007,07,11,04,41,17.00
2007,07,11,04,42,17.00
2007,07,11,04,43,17.00
2007,07,11,04,44,17.00
2007,07,11,04,45,17.00
2007,07,11,04,46,16.90
2007,07,11,04,47,16.90
2007,07,11,04,48,16.90
2007,07,11,04,49,16.90
2007,07,11,04,50,16.90
2007,07,11,04,51,16.90
2007,07,11,04,52,16.90
2007,07,11,04,53,16.90
2007,07,11,04,54,16.90
2007,07,11,04,55,16.80
2007,07,11,04,56,16.80
2007,07,11,04,57,16.80
2007,07,11,04,58,16.80
2007,07,11,04,59,16.80
2007,07,11,05,00,16.80
2007,07,11,05,01,16.70
2007,07,11,05,02,16.70
2007,07,11,05,03,16.70
2007,07,11,05,04,16.70
2007,07,11,05,05,16.70
2007,07,11,05,06,16.70
2007,07,11,05,07,16.70
2007,07,11,05,08,16.70
2007,07,11,05,09,16.70
2007,07,11,05,10,16.70
2007,07,11,05,11,16.70
2007,07,11,05,12,16.70
2007,07,11,05,13,16.60
2007,07,11,05,14,16.60
2007,07,11,05,15,16.60
2007,07,11,05,16,16.60
2007,07,11,05,17,16.60
2007,07,11,05,18,16.60
2007,07,11,05,19,16.60
2007,07,11,05,20,16.70
2007,07,11,05,21,16.70
2007,07,11,05,22,16.70
2007,07,11,05,23,16.70
2007,07,11,05,24,16.70
2007,07,11,05,25,16.70
2007,07,11,05,26,16.70
2007,07,11,05,27,16.70
2007,07,11,05,28,16.70
2007,07,11,05,29,16.70
2007,07,11,05,30,16.70
2007,07,11,05,31,16.70
2007,07,11,05,32,16.60
2007,07,11,05,33,16.60
2007,07,11,05,34,16.60
2007,07,11,05,35,16.60
2007,07,11,05,36,16.60
2007,07,11,05,37,16.60
2007,07,11,05,38,16.50
2007,07,11,05,39,16.40
2007,07,11,05,40,16.40
2007,07,11,05,41,16.40
2007,07,11,05,42,16.40
2007,07,11,05,43,16.40
2007,07,11,05,44,16.40
2007,07,11,05,45,16.40
2007,07,11,05,46,16.40
2007,07,11,05,47,16.50
2007,07,11,05,48,16.60
2007,07,11,05,49,16.60
2007,07,11,05,50,16.60
2007,07,11,05,51,16.60
2007,07,11,05,52,16.60
2007,07,11,05,53,16.70
2007,07,11,05,54,16.70
2007,07,11,05,55,16.70
2007,07,11,05,56,16.70
2007,07,11,05,57,16.80
2007,07,11,05,58,16.90
2007,07,11,05,59,16.90
2007,07,11,06,00,17.00
2007,07,11,06,01,17.00
2007,07,11,06,02,17.10
2007,07,11,06,03,17.20
2007,07,11,06,04,17.30
2007,07,11,06,05,17.30
2007,07,11,06,06,17.40
2007,07,11,06,07,17.50
2007,07,11,06,08,17.50
2007,07,11,06,09,17.60
2007,07,11,06,10,17.60
2007,07,11,06,11,17.70
2007,07,11,06,12,17.80
2007,07,11,06,13,17.80
2007,07,11,06,14,17.90
2007,07,11,06,15,17.90
2007,07,11,06,16,17.90
2007,07,11,06,17,18.00
2007,07,11,06,18,18.10
2007,07,11,06,19,18.10
2007,07,11,06,20,18.20
2007,07,11,06,21,18.30
2007,07,11,06,22,18.40
2007,07,11,06,23,18.50
2007,07,11,06,24,18.60
2007,07,11,06,25,18.70
2007,07,11,06,26,18.80
2007,07,11,06,27,18.80
2007,07,11,06,28,18.90
2007,07,11,06,29,18.90
2007,07,11,06,30,18.90
2007,07,11,06,31,18.90
2007,07,11,06,32,19.10
2007,07,11,06,33,19.10
2007,07,11,06,34,19.20
2007,07,11,06,35,19.30
2007,07,11,06,36,19.40
2007,07,11,06,37,19.40
2007,07,11,06,38,19.50
2007,07,11,06,39,19.50
2007,07,11,06,40,19.60
2007,07,11,06,41,19.60
2007,07,11,06,42,19.70
2007,07,11,06,43,19.70
2007,07,11,06,44,19.80
2007,07,11,06,45,19.80
2007,07,11,06,46,19.80
2007,07,11,06,47,19.80
2007,07,11,06,48,19.90
2007,07,11,06,49,19.90
2007,07,11,06,50,19.90
2007,07,11,06,51,19.90
2007,07,11,06,52,19.90
2007,07,11,06,53,19.90
2007,07,11,06,54,20.00
2007,07,11,06,55,20.10
2007,07,11,06,56,20.10
2007,07,11,06,57,20.10
2007,07,11,06,58,20.20
2007,07,11,06,59,20.20
2007,07,11,07,00,20.20
2007,07,11,07,01,20.30
2007,07,11,07,02,20.30
2007,07,11,07,03,20.40
2007,07,11,07,04,20.40
2007,07,11,07,05,20.40
2007,07,11,07,06,20.40
2007,07,11,07,07,20.40
2007,07,11,07,08,20.40
2007,07,11,07,09,20.40
2007,07,11,07,10,20.40
2007,07,11,07,11,20.40
2007,07,11,07,12,20.40
2007,07,11,07,13,20.40
2007,07,11,07,14,20.40
2007,07,11,07,15,20.40
2007,07,11,07,16,20.40
2007,07,11,07,17,20.40
2007,07,11,07,18,20.40
2007,07,11,07,19,20.50
2007,07,11,07,20,20.50
2007,07,11,07,21,20.50
2007,07,11,07,22,20.60
2007,07,11,07,23,20.70
2007,07,11,07,24,20.70
2007,07,11,07,25,20.80
2007,07,11,07,26,20.80
2007,07,11,07,27,20.90
2007,07,11,07,28,20.90
2007,07,11,07,29,21.00
2007,07,11,07,30,21.10
2007,07,11,07,31,21.10
2007,07,11,07,32,21.20
2007,07,11,07,33,21.30
2007,07,11,07,34,21.30
2007,07,11,07,35,21.40
2007,07,11,07,36,21.50
2007,07,11,07,37,21.60
2007,07,11,07,38,21.60
2007,07,11,07,39,21.70
2007,07,11,07,40,21.70
2007,07,11,07,41,21.80
2007,07,11,07,42,21.90
2007,07,11,07,43,22.00
2007,07,11,07,44,22.00
2007,07,11,07,45,22.00
2007,07,11,07,46,22.10
2007,07,11,07,47,22.20
2007,07,11,07,48,22.20
2007,07,11,07,49,22.30
2007,07,11,07,50,22.30
2007,07,11,07,51,22.40
2007,07,11,07,52,22.50
2007,07,11,07,53,22.70
2007,07,11,07,54,22.80
2007,07,11,07,55,23.00
2007,07,11,07,56,23.20
2007,07,11,07,57,23.30
2007,07,11,07,58,23.30
2007,07,11,07,59,23.30
2007,07,11,08,00,23.30
2007,07,11,08,01,23.30
2007,07,11,08,02,23.30
2007,07,11,08,03,23.30
2007,07,11,08,04,23.20
2007,07,11,08,05,23.20
2007,07,11,08,06,23.20
2007,07,11,08,07,23.10
2007,07,11,08,08,23.10
2007,07,11,08,09,23.10
2007,07,11,08,10,23.10
2007,07,11,08,11,23.20
2007,07,11,08,12,23.20
2007,07,11,08,13,23.20
2007,07,11,08,14,23.20
2007,07,11,08,15,23.20
2007,07,11,08,16,23.20
2007,07,11,08,17,23.30
2007,07,11,08,18,23.30
2007,07,11,08,19,23.10
2007,07,11,08,20,23.00
2007,07,11,08,21,22.90
2007,07,11,08,22,22.80
2007,07,11,08,23,22.70
2007,07,11,08,24,22.70
2007,07,11,08,25,22.60
2007,07,11,08,26,22.60
2007,07,11,08,27,22.60
2007,07,11,08,28,22.60
2007,07,11,08,29,22.50
2007,07,11,08,30,22.50
2007,07,11,08,31,22.40
2007,07,11,08,32,22.50
2007,07,11,08,33,22.50
2007,07,11,08,34,22.60
2007,07,11,08,35,22.70
2007,07,11,08,36,22.70
2007,07,11,08,37,22.80
2007,07,11,08,38,22.90
2007,07,11,08,39,22.90
2007,07,11,08,40,22.90
2007,07,11,08,41,23.00
2007,07,11,08,42,23.10
2007,07,11,08,43,23.20
2007,07,11,08,44,23.30
2007,07,11,08,45,23.40
2007,07,11,08,46,23.50
2007,07,11,08,47,23.70
2007,07,11,08,48,23.70
2007,07,11,08,49,23.70
2007,07,11,08,50,23.80
2007,07,11,08,51,23.80
2007,07,11,08,52,23.90
2007,07,11,08,53,24.00
2007,07,11,08,54,24.10
2007,07,11,08,55,24.10
2007,07,11,08,56,24.10
2007,07,11,08,57,24.00
2007,07,11,08,58,23.90
2007,07,11,08,59,23.80
2007,07,11,09,00,23.70
2007,07,11,09,01,23.60
2007,07,11,09,02,23.40
2007,07,11,09,03,23.30
2007,07,11,09,04,23.20
2007,07,11,09,05,22.90
2007,07,11,09,06,22.70
2007,07,11,09,07,22.50
2007,07,11,09,08,22.30
2007,07,11,09,09,22.20
2007,07,11,09,10,22.20
2007,07,11,09,11,22.20
2007,07,11,09,12,22.30
2007,07,11,09,13,22.30
2007,07,11,09,14,22.40
2007,07,11,09,15,22.40
2007,07,11,09,16,22.50
2007,07,11,09,17,22.50
2007,07,11,09,18,22.60
2007,07,11,09,19,22.70
2007,07,11,09,20,22.80
2007,07,11,09,21,22.90
2007,07,11,09,22,23.10
2007,07,11,09,23,23.20
2007,07,11,09,24,23.30
2007,07,11,09,25,23.50
2007,07,11,09,26,23.70
2007,07,11,09,27,23.80
2007,07,11,09,28,24.00
2007,07,11,09,29,24.10
2007,07,11,09,30,24.10
2007,07,11,09,31,24.20
2007,07,11,09,32,24.30
2007,07,11,09,33,24.30
2007,07,11,09,34,24.40
2007,07,11,09,35,24.50
2007,07,11,09,36,24.50
2007,07,11,09,37,24.60
2007,07,11,09,38,24.70
2007,07,11,09,39,24.80
2007,07,11,09,40,24.90
2007,07,11,09,41,25.00
2007,07,11,09,42,25.00
2007,07,11,09,43,25.10
2007,07,11,09,44,25.20
2007,07,11,09,45,25.40
2007,07,11,09,46,25.60
2007,07,11,09,47,25.80
2007,07,11,09,48,26.00
2007,07,11,09,49,26.20
2007,07,11,09,50,26.40
2007,07,11,09,51,26.50
2007,07,11,09,52,26.50
2007,07,11,09,53,26.10
2007,07,11,09,54,26.00
2007,07,11,09,55,25.90
2007,07,11,09,56,25.90
2007,07,11,09,57,25.80
2007,07,11,09,58,25.80
2007,07,11,09,59,25.80
2007,07,11,10,00,25.80
2007,07,11,10,01,25.90
2007,07,11,10,02,26.00
2007,07,11,10,03,26.10
2007,07,11,10,04,26.20
2007,07,11,10,05,26.40
2007,07,11,10,06,26.50
2007,07,11,10,07,26.60
2007,07,11,10,08,26.90
2007,07,11,10,09,27.20
2007,07,11,10,10,27.60
2007,07,11,10,11,27.90
2007,07,11,10,12,28.30
2007,07,11,10,13,28.70
2007,07,11,10,14,29.10
2007,07,11,10,15,29.30
2007,07,11,10,16,29.50
2007,07,11,10,17,29.70
2007,07,11,10,18,29.90
2007,07,11,10,19,30.00
2007,07,11,10,20,30.10
2007,07,11,10,21,30.20
2007,07,11,10,22,30.20
2007,07,11,10,23,30.20
2007,07,11,10,24,30.30
2007,07,11,10,25,30.40
2007,07,11,10,26,30.60
2007,07,11,10,27,30.70
2007,07,11,10,28,30.70
2007,07,11,10,29,30.80
2007,07,11,10,30,30.90
2007,07,11,10,31,31.00
2007,07,11,10,32,31.10
2007,07,11,10,33,31.20
2007,07,11,10,34,31.20
2007,07,11,10,35,31.30
2007,07,11,10,36,31.30
2007,07,11,10,37,31.30
2007,07,11,10,38,31.30
2007,07,11,10,39,31.20
2007,07,11,10,40,31.30
2007,07,11,10,41,31.30
2007,07,11,10,42,31.30
2007,07,11,10,43,31.30
2007,07,11,10,44,31.30
2007,07,11,10,45,31.40
2007,07,11,10,46,31.40
2007,07,11,10,47,31.40
2007,07,11,10,48,31.60
2007,07,11,10,49,31.60
2007,07,11,10,50,31.60
2007,07,11,10,51,31.60
2007,07,11,10,52,31.60
2007,07,11,10,53,31.60
2007,07,11,10,54,31.60
2007,07,11,10,55,31.70
2007,07,11,10,56,31.80
2007,07,11,10,57,31.80
2007,07,11,10,58,31.90
2007,07,11,10,59,31.90
2007,07,11,11,00,32.00
2007,07,11,11,01,32.10
2007,07,11,11,02,32.10
2007,07,11,11,03,32.10
2007,07,11,11,04,32.20
2007,07,11,11,05,32.20
2007,07,11,11,06,32.30
2007,07,11,11,07,32.30
2007,07,11,11,08,32.40
2007,07,11,11,09,32.40
2007,07,11,11,10,32.40
2007,07,11,11,11,32.30
2007,07,11,11,12,31.80
2007,07,11,11,13,31.20
2007,07,11,11,14,30.70
2007,07,11,11,15,30.20
2007,07,11,11,16,29.60
2007,07,11,11,17,29.10
2007,07,11,11,18,28.80
2007,07,11,11,19,28.60
2007,07,11,11,20,28.60
2007,07,11,11,21,28.60
2007,07,11,11,22,28.40
2007,07,11,11,23,28.00
2007,07,11,11,24,27.60
2007,07,11,11,25,27.30
2007,07,11,11,26,27.00
2007,07,11,11,27,26.70
2007,07,11,11,28,26.60
2007,07,11,11,29,26.60
2007,07,11,11,30,26.60
2007,07,11,11,31,26.60
2007,07,11,11,32,26.60
2007,07,11,11,33,26.70
2007,07,11,11,34,26.90
2007,07,11,11,35,27.10
2007,07,11,11,36,27.30
2007,07,11,11,37,27.40
2007,07,11,11,38,27.60
2007,07,11,11,39,27.70
2007,07,11,11,40,27.90
2007,07,11,11,41,28.10
2007,07,11,11,42,28.30
2007,07,11,11,43,28.30
2007,07,11,11,44,28.30
2007,07,11,11,45,28.40
2007,07,11,11,46,28.60
2007,07,11,11,47,28.70
2007,07,11,11,48,28.80
2007,07,11,11,49,28.90
2007,07,11,11,50,29.00
2007,07,11,11,51,29.40
2007,07,11,11,52,29.70
2007,07,11,11,53,29.80
2007,07,11,11,54,29.70
2007,07,11,11,55,29.70
2007,07,11,11,56,30.00
2007,07,11,11,57,30.20
2007,07,11,11,58,30.70
2007,07,11,11,59,31.00
2007,07,11,12,00,31.30
2007,07,11,12,01,31.60
2007,07,11,12,02,31.90
2007,07,11,12,03,32.10
2007,07,11,12,04,32.00
2007,07,11,12,05,31.70
2007,07,11,12,06,31.50
2007,07,11,12,07,31.30
2007,07,11,12,08,31.30
2007,07,11,12,09,31.30
2007,07,11,12,10,31.40
2007,07,11,12,11,31.20
2007,07,11,12,12,30.90
2007,07,11,12,13,30.60
2007,07,11,12,14,30.10
2007,07,11,12,15,29.80
2007,07,11,12,16,29.60
2007,07,11,12,17,29.40
2007,07,11,12,18,29.50
2007,07,11,12,19,29.50
2007,07,11,12,20,29.60
2007,07,11,12,21,29.60
2007,07,11,12,22,29.60
2007,07,11,12,23,29.50
2007,07,11,12,24,29.30
2007,07,11,12,25,29.40
2007,07,11,12,26,29.40
2007,07,11,12,27,29.30
2007,07,11,12,28,29.20
2007,07,11,12,29,29.20
2007,07,11,12,30,29.30
2007,07,11,12,31,29.50
2007,07,11,12,32,29.60
2007,07,11,12,33,29.60
2007,07,11,12,34,29.60
2007,07,11,12,35,29.60
2007,07,11,12,36,29.50
2007,07,11,12,37,29.40
2007,07,11,12,38,29.20
2007,07,11,12,39,29.10
2007,07,11,12,40,29.10
2007,07,11,12,41,29.10
2007,07,11,12,42,29.10
2007,07,11,12,43,29.20
2007,07,11,12,44,29.20
2007,07,11,12,45,29.00
2007,07,11,12,46,28.90
2007,07,11,12,47,28.90
2007,07,11,12,48,28.90
2007,07,11,12,49,28.90
2007,07,11,12,50,29.10
2007,07,11,12,51,29.30
2007,07,11,12,52,29.50
2007,07,11,12,53,29.60
2007,07,11,12,54,29.50
2007,07,11,12,55,29.30
2007,07,11,12,56,29.00
2007,07,11,12,57,28.70
2007,07,11,12,58,28.40
2007,07,11,12,59,28.10
2007,07,11,13,00,27.90
2007,07,11,13,01,27.60
2007,07,11,13,02,27.60
2007,07,11,13,03,27.70
2007,07,11,13,04,27.90
2007,07,11,13,05,28.00
2007,07,11,13,06,28.10
2007,07,11,13,07,28.20
2007,07,11,13,08,28.40
2007,07,11,13,09,28.60
2007,07,11,13,10,28.80
2007,07,11,13,11,28.90
2007,07,11,13,12,29.10
2007,07,11,13,13,29.20
2007,07,11,13,14,29.30
2007,07,11,13,15,29.40
2007,07,11,13,16,29.40
2007,07,11,13,17,29.40
2007,07,11,13,18,29.50
2007,07,11,13,19,29.60
2007,07,11,13,20,29.50
2007,07,11,13,21,29.30
2007,07,11,13,22,29.30
2007,07,11,13,23,29.40
2007,07,11,13,24,29.60
2007,07,11,13,25,30.00
2007,07,11,13,26,30.60
2007,07,11,13,27,31.10
2007,07,11,13,28,31.50
2007,07,11,13,29,31.90
2007,07,11,13,30,32.20
2007,07,11,13,31,32.50
2007,07,11,13,32,32.50
2007,07,11,13,33,32.10
2007,07,11,13,34,31.60
2007,07,11,13,35,31.20
2007,07,11,13,36,30.90
2007,07,11,13,37,30.60
2007,07,11,13,38,30.60
2007,07,11,13,39,30.60
2007,07,11,13,40,30.60
2007,07,11,13,41,30.60
2007,07,11,13,42,30.60
2007,07,11,13,43,30.70
2007,07,11,13,44,31.00
2007,07,11,13,45,31.20
2007,07,11,13,46,31.50
2007,07,11,13,47,31.90
2007,07,11,13,48,32.30
2007,07,11,13,49,32.60
2007,07,11,13,50,32.90
2007,07,11,13,51,33.10
2007,07,11,13,52,33.40
2007,07,11,13,53,33.60
2007,07,11,13,54,33.60
2007,07,11,13,55,33.70
2007,07,11,13,56,33.80
2007,07,11,13,57,33.80
2007,07,11,13,58,33.80
2007,07,11,13,59,33.80
2007,07,11,14,00,33.90
2007,07,11,14,01,33.90
2007,07,11,14,02,33.80
2007,07,11,14,03,33.60
2007,07,11,14,04,33.10
2007,07,11,14,05,32.40
2007,07,11,14,06,31.90
2007,07,11,14,07,31.50
2007,07,11,14,08,31.20
2007,07,11,14,09,31.00
2007,07,11,14,10,30.70
2007,07,11,14,11,30.20
2007,07,11,14,12,29.80
2007,07,11,14,13,29.20
2007,07,11,14,14,28.80
2007,07,11,14,15,28.50
2007,07,11,14,16,28.30
2007,07,11,14,17,28.20
2007,07,11,14,18,28.20
2007,07,11,14,19,28.10
2007,07,11,14,20,28.20
2007,07,11,14,21,28.40
2007,07,11,14,22,28.60
2007,07,11,14,23,28.70
2007,07,11,14,24,28.80
2007,07,11,14,25,28.80
2007,07,11,14,26,28.70
2007,07,11,14,27,28.60
2007,07,11,14,28,28.60
2007,07,11,14,29,28.60
2007,07,11,14,30,28.60
2007,07,11,14,31,28.70
2007,07,11,14,32,28.70
2007,07,11,14,33,28.80
2007,07,11,14,34,28.90
2007,07,11,14,35,28.90
2007,07,11,14,36,28.90
2007,07,11,14,37,28.80
2007,07,11,14,38,28.70
2007,07,11,14,39,28.50
2007,07,11,14,40,28.40
2007,07,11,14,41,28.40
2007,07,11,14,42,28.40
2007,07,11,14,43,28.50
2007,07,11,14,44,28.70
2007,07,11,14,45,28.90
2007,07,11,14,46,28.90
2007,07,11,14,47,29.00
2007,07,11,14,48,29.10
2007,07,11,14,49,29.10
2007,07,11,14,50,29.20
2007,07,11,14,51,29.20
2007,07,11,14,52,29.10
2007,07,11,14,53,29.10
2007,07,11,14,54,29.10
2007,07,11,14,55,29.20
2007,07,11,14,56,29.30
2007,07,11,14,57,29.40
2007,07,11,14,58,29.30
2007,07,11,14,59,29.30
2007,07,11,15,00,29.30
2007,07,11,15,01,29.30
2007,07,11,15,02,29.30
2007,07,11,15,03,29.30
2007,07,11,15,04,29.40
2007,07,11,15,05,29.60
2007,07,11,15,06,29.70
2007,07,11,15,07,29.80
2007,07,11,15,08,29.80
2007,07,11,15,09,29.70
2007,07,11,15,10,29.70
2007,07,11,15,11,29.80
2007,07,11,15,12,29.90
2007,07,11,15,13,30.10
2007,07,11,15,14,30.10
2007,07,11,15,15,30.10
2007,07,11,15,16,30.10
2007,07,11,15,17,30.00
2007,07,11,15,18,30.00
2007,07,11,15,19,30.10
2007,07,11,15,20,30.10
2007,07,11,15,21,30.20
2007,07,11,15,22,30.10
2007,07,11,15,23,30.00
2007,07,11,15,24,30.00
2007,07,11,15,25,30.20
2007,07,11,15,26,30.30
2007,07,11,15,27,30.60
2007,07,11,15,28,30.70
2007,07,11,15,29,31.00
2007,07,11,15,30,31.20
2007,07,11,15,31,31.40
2007,07,11,15,32,31.70
2007,07,11,15,33,32.00
2007,07,11,15,34,32.30
2007,07,11,15,35,32.60
2007,07,11,15,36,32.90
2007,07,11,15,37,33.10
2007,07,11,15,38,33.40
2007,07,11,15,39,33.60
2007,07,11,15,40,33.90
2007,07,11,15,41,34.10
2007,07,11,15,42,34.30
2007,07,11,15,43,34.40
2007,07,11,15,44,34.60
2007,07,11,15,45,34.80
2007,07,11,15,46,34.90
2007,07,11,15,47,35.00
2007,07,11,15,48,35.10
2007,07,11,15,49,35.20
2007,07,11,15,50,35.30
2007,07,11,15,51,35.50
2007,07,11,15,52,35.60
2007,07,11,15,53,35.60
2007,07,11,15,54,35.70
2007,07,11,15,55,35.70
2007,07,11,15,56,35.70
2007,07,11,15,57,35.70
2007,07,11,15,58,35.70
2007,07,11,15,59,35.70
2007,07,11,16,00,35.70
2007,07,11,16,01,35.90
2007,07,11,16,02,35.90
2007,07,11,16,03,35.80
2007,07,11,16,04,35.70
2007,07,11,16,05,35.70
2007,07,11,16,06,35.70
2007,07,11,16,07,35.70
2007,07,11,16,08,35.60
2007,07,11,16,09,35.60
2007,07,11,16,10,35.50
2007,07,11,16,11,35.30
2007,07,11,16,12,35.20
2007,07,11,16,13,35.30
2007,07,11,16,14,35.50
2007,07,11,16,15,35.60
2007,07,11,16,16,35.70
2007,07,11,16,17,35.70
2007,07,11,16,18,35.90
2007,07,11,16,19,35.90
2007,07,11,16,20,35.90
2007,07,11,16,21,35.90
2007,07,11,16,22,35.90
2007,07,11,16,23,35.90
2007,07,11,16,24,35.70
2007,07,11,16,25,35.70
2007,07,11,16,26,35.80
2007,07,11,16,27,35.90
2007,07,11,16,28,35.90
2007,07,11,16,29,36.00
2007,07,11,16,30,36.00
2007,07,11,16,31,36.00
2007,07,11,16,32,36.00
2007,07,11,16,33,36.10
2007,07,11,16,34,36.20
2007,07,11,16,35,36.20
2007,07,11,16,36,36.20
2007,07,11,16,37,36.10
2007,07,11,16,38,36.00
2007,07,11,16,39,35.90
2007,07,11,16,40,35.70
2007,07,11,16,41,35.40
2007,07,11,16,42,35.00
2007,07,11,16,43,34.50
2007,07,11,16,44,34.10
2007,07,11,16,45,33.70
2007,07,11,16,46,33.40
2007,07,11,16,47,33.10
2007,07,11,16,48,32.70
2007,07,11,16,49,32.30
2007,07,11,16,50,32.00
2007,07,11,16,51,31.80
2007,07,11,16,52,31.60
2007,07,11,16,53,31.40
2007,07,11,16,54,31.30
2007,07,11,16,55,31.20
2007,07,11,16,56,31.10
2007,07,11,16,57,31.00
2007,07,11,16,58,30.90
2007,07,11,16,59,30.70
2007,07,11,17,00,30.60
2007,07,11,17,01,30.50
2007,07,11,17,02,30.40
2007,07,11,17,03,30.40
2007,07,11,17,04,30.40
2007,07,11,17,05,30.50
2007,07,11,17,06,30.60
2007,07,11,17,07,30.60
2007,07,11,17,08,30.60
2007,07,11,17,09,30.60
2007,07,11,17,10,30.50
2007,07,11,17,11,30.30
2007,07,11,17,12,30.20
2007,07,11,17,13,30.10
2007,07,11,17,14,29.90
2007,07,11,17,15,29.80
2007,07,11,17,16,29.80
2007,07,11,17,17,29.70
2007,07,11,17,18,29.70
2007,07,11,17,19,29.70